Montreal Mirabel, Quebec

11:22 AM EDT on May 23, 2017 (GMT -0400)
Montreal Mirabel

Weather History for CYMX - October, 2014

Change the Weather History Date:

Saturday, October 11, 2014

  Actual Average Record
Temperature  
Mean Temperature 42 °F -  
Max Temperature 53 °F 55 °F 73 °F (2003)
Min Temperature 30 °F 37 °F 26 °F (1996)
Degree Days  
Heating Degree Days 24    
Moisture  
Dew Point 35 °F    
Average Humidity 78    
Maximum Humidity 100    
Minimum Humidity 50    
Precipitation  
Precipitation 0.00 in - - ()
Sea Level Pressure  
Sea Level Pressure 30.13 in    
Wind  
Wind Speed 2 mph ()    
Max Wind Speed 8 mph    
Max Gust Speed -    
Averages and records for this station are not official NWS values.
T = Trace of Precipitation, MM = Missing Value Source: Averaged Metar Reports

Daily Weather History Graph

Daily Weather History Graph

Search for Another Location

Airport or City:

Trip Planner

Search our weather history database for the weather conditions in past years. The results will help you decide how hot, cold, wet, or windy it might be!

Date:

Astronomy

Oct. 11, 2014 Rise Set
Actual Time 7:07 AM EDT 6:17 PM EDT
Civil Twilight 6:37 AM EDT 6:47 PM EDT
Nautical Twilight 6:03 AM EDT 7:21 PM EDT
Astronomical Twilight 5:28 AM EDT 7:56 PM EDT
Moon 8:33 PM EDT (10/11) 10:37 AM EDT (10/11)
Length of Visible Light 12h 09m
Length of Day
11h 10m
Waning Gibbous, 87% of the Moon is Illuminated
Oct 11
Waning Gibbous
Oct 15
Last Quarter
Oct 23
New
Oct 30
First Quarter
Nov 6
Full

Hourly Weather History & Observations

Time (EDT) Temp. Windchill Dew Point Humidity Pressure Visibility Wind Dir Wind Speed Gust Speed Precip Events Conditions
12:00 AM 37.4 °F 34.9 °F 35.6 °F 93% 30.12 in 25.0 mi West 3.5 mph - N/A   Partly Cloudy
1:00 AM 35.6 °F - 33.8 °F 93% 30.11 in 25.0 mi WSW 2.3 mph - N/A   Scattered Clouds
2:00 AM 33.8 °F - 32.0 °F 93% 30.11 in 25.0 mi Calm Calm - N/A   Scattered Clouds
3:00 AM 33.8 °F - 33.8 °F 100% 30.12 in 25.0 mi Calm Calm - N/A   Scattered Clouds
4:00 AM 32.0 °F - 32.0 °F 100% 30.12 in 25.0 mi Calm Calm - N/A   Scattered Clouds
5:00 AM 32.0 °F - 32.0 °F 100% 30.12 in 25.0 mi Calm Calm - N/A   Mostly Cloudy
6:00 AM 33.8 °F - 32.0 °F 93% 30.12 in 25.0 mi Calm Calm - N/A   Scattered Clouds
7:00 AM 30.2 °F - 30.2 °F 100% 30.13 in 45.0 mi Variable 2.3 mph - N/A   Scattered Clouds
8:00 AM 32.0 °F 28.7 °F 32.0 °F 100% 30.15 in 45.0 mi NNW 3.5 mph - N/A   Mostly Cloudy
9:00 AM 41.0 °F - 37.4 °F 87% 30.15 in 40.0 mi NNE 2.3 mph - N/A   Mostly Cloudy
10:00 AM 44.6 °F - 39.2 °F 81% 30.15 in 40.0 mi NNW 2.3 mph - N/A   Mostly Cloudy
11:00 AM 50.0 °F - 37.4 °F 62% 30.15 in 25.0 mi WSW 4.6 mph - N/A   Mostly Cloudy
12:00 PM 50.0 °F - 37.4 °F 62% 30.14 in 25.0 mi SSW 6.9 mph - N/A   Mostly Cloudy
1:00 PM 53.6 °F - 39.2 °F 58% 30.12 in 25.0 mi SSW 5.8 mph - N/A   Mostly Cloudy
2:00 PM 50.0 °F - 37.4 °F 62% 30.10 in 45.0 mi WSW 4.6 mph - N/A   Mostly Cloudy
3:00 PM 51.8 °F - 35.6 °F 54% 30.09 in 45.0 mi WSW 5.8 mph - N/A   Mostly Cloudy
4:00 PM 51.8 °F - 33.8 °F 50% 30.10 in 45.0 mi WSW 8.1 mph - N/A   Mostly Cloudy
5:00 PM 51.8 °F - 35.6 °F 54% 30.11 in 45.0 mi WSW 3.5 mph - N/A   Mostly Cloudy
6:00 PM 50.0 °F - 35.6 °F 58% 30.11 in 45.0 mi West 4.6 mph - N/A   Scattered Clouds
7:00 PM 44.6 °F - 35.6 °F 71% 30.12 in 25.0 mi Variable 2.3 mph - N/A   Partly Cloudy
8:00 PM 44.6 °F 43.1 °F 35.6 °F 71% 30.13 in 25.0 mi West 3.5 mph - N/A   Partly Cloudy
9:00 PM 44.6 °F 43.1 °F 35.6 °F 71% 30.14 in 25.0 mi West 3.5 mph - N/A   Scattered Clouds
10:00 PM 44.6 °F 42.2 °F 35.6 °F 71% 30.15 in 25.0 mi WNW 4.6 mph - N/A   Mostly Cloudy
11:00 PM 44.6 °F - 37.4 °F 76% 30.15 in 25.0 mi West 2.3 mph - N/A   Mostly Cloudy